TimeCST,TemperatureF,Dew PointF,Humidity,Sea Level PressureIn,VisibilityMPH,Wind Direction,Wind SpeedMPH,Gust SpeedMPH,PrecipitationIn,Events,Conditions,WindDirDegrees,DateUTC
12:53 AM,37.0,33.1,86,30.40,7.0,Calm,Calm,-,N/A,,Clear,0,2012-11-16 06:53:00
1:53 AM,34.0,30.9,89,30.39,6.0,Calm,Calm,-,N/A,,Clear,0,2012-11-16 07:53:00
2:53 AM,34.0,32.0,92,30.40,7.0,Calm,Calm,-,N/A,,Clear,0,2012-11-16 08:53:00
3:53 AM,34.0,32.0,92,30.40,6.0,Calm,Calm,-,N/A,,Clear,0,2012-11-16 09:53:00
4:53 AM,32.0,30.9,96,30.41,5.0,Calm,Calm,-,N/A,,Clear,0,2012-11-16 10:53:00
5:53 AM,30.9,28.9,92,30.42,5.0,ENE,3.5,-,N/A,,Clear,60,2012-11-16 11:53:00
6:53 AM,30.9,28.9,92,30.43,6.0,Calm,Calm,-,N/A,,Clear,0,2012-11-16 12:53:00
7:53 AM,34.0,32.0,92,30.44,5.0,Calm,Calm,-,N/A,,Clear,0,2012-11-16 13:53:00
8:53 AM,46.0,37.0,71,30.44,8.0,Calm,Calm,-,N/A,,Clear,0,2012-11-16 14:53:00
9:53 AM,53.1,37.0,55,30.46,10.0,Calm,Calm,-,N/A,,Clear,0,2012-11-16 15:53:00
10:53 AM,57.0,33.1,40,30.45,10.0,Calm,Calm,-,N/A,,Clear,0,2012-11-16 16:53:00
11:53 AM,57.9,34.0,41,30.43,10.0,WSW,3.5,-,N/A,,Clear,240,2012-11-16 17:53:00
12:53 PM,60.1,35.1,39,30.40,10.0,Calm,Calm,-,N/A,,Clear,0,2012-11-16 18:53:00
1:53 PM,62.1,32.0,32,30.38,10.0,Calm,Calm,-,N/A,,Clear,0,2012-11-16 19:53:00
2:53 PM,61.0,34.0,36,30.38,10.0,Calm,Calm,-,N/A,,Clear,0,2012-11-16 20:53:00
3:53 PM,60.1,34.0,38,30.38,10.0,ESE,4.6,-,N/A,,Clear,110,2012-11-16 21:53:00
4:53 PM,55.9,30.9,39,30.38,10.0,Calm,Calm,-,N/A,,Clear,0,2012-11-16 22:53:00
5:53 PM,53.1,34.0,48,30.38,10.0,Calm,Calm,-,N/A,,Clear,0,2012-11-16 23:53:00
6:53 PM,48.9,34.0,56,30.39,10.0,Calm,Calm,-,N/A,,Clear,0,2012-11-17 00:53:00
7:53 PM,46.9,33.1,59,30.39,10.0,Calm,Calm,-,N/A,,Clear,0,2012-11-17 01:53:00
8:53 PM,45.0,33.1,63,30.39,10.0,ESE,4.6,-,N/A,,Clear,120,2012-11-17 02:53:00
9:53 PM,45.0,32.0,60,30.39,10.0,SE,5.8,-,N/A,,Clear,130,2012-11-17 03:53:00
10:53 PM,46.9,30.0,52,30.39,10.0,SSE,5.8,-,N/A,,Clear,150,2012-11-17 04:53:00
11:53 PM,43.0,30.0,60,30.40,10.0,SSE,5.8,-,N/A,,Clear,150,2012-11-17 05:53:00